Time,TemperatureF,DewpointF,PressureIn,WindDirection,WindDirectionDegrees,WindSpeedMPH,WindSpeedGustMPH,Humidity,HourlyPrecipIn,Conditions,Clouds,dailyrainin,SolarRadiationWatts/m^2,SoftwareType,DateUTC
2013-02-16 00:01:00,47.0,46.0,-100.00,SSW,207,1.0,3.0,97,-99.99,,,0.00,0.000000,,2013-02-16 08:01:00,
2013-02-16 00:11:00,47.0,46.0,-100.00,SSW,207,1.0,3.0,97,-99.99,,,0.00,0.000000,,2013-02-16 08:11:00,
2013-02-16 00:41:00,47.0,46.0,-100.00,South,181,0.0,1.0,96,-99.99,,,0.00,0.000000,,2013-02-16 08:41:00,
2013-02-16 00:52:00,47.0,46.0,-100.00,South,181,0.0,1.0,96,-99.99,,,0.00,0.000000,,2013-02-16 08:52:00,
2013-02-16 01:01:00,47.0,46.0,-100.00,South,181,0.0,1.0,96,-99.99,,,0.00,0.000000,,2013-02-16 09:01:00,
2013-02-16 01:11:00,47.0,46.0,-100.00,South,181,0.0,1.0,96,-99.99,,,0.00,0.000000,,2013-02-16 09:11:00,
2013-02-16 01:42:00,47.0,46.0,-100.00,South,180,0.0,1.0,96,-99.99,,,0.00,0.000000,,2013-02-16 09:42:00,
2013-02-16 01:52:00,47.0,46.0,-100.00,South,180,0.0,1.0,96,-99.99,,,0.00,0.000000,,2013-02-16 09:52:00,
2013-02-16 02:01:00,47.0,46.0,-100.00,South,180,0.0,1.0,96,-99.99,,,0.00,0.000000,,2013-02-16 10:01:00,
2013-02-16 02:11:00,47.0,46.0,-100.00,South,180,0.0,1.0,96,-99.99,,,0.00,0.000000,,2013-02-16 10:11:00,
2013-02-16 02:41:00,47.0,46.0,-100.00,SE,143,1.0,2.0,96,-99.99,,,0.00,0.000000,,2013-02-16 10:41:00,
2013-02-16 02:52:00,47.0,46.0,-100.00,SE,143,1.0,2.0,96,-99.99,,,0.00,0.000000,,2013-02-16 10:52:00,
2013-02-16 03:02:00,47.0,46.0,-100.00,SE,143,1.0,2.0,96,-99.99,,,0.00,0.000000,,2013-02-16 11:02:00,
2013-02-16 03:11:00,47.0,46.0,-100.00,SE,143,1.0,2.0,96,-99.99,,,0.00,0.000000,,2013-02-16 11:11:00,
2013-02-16 03:42:00,47.0,46.0,-100.00,SW,214,0.0,0.0,96,-99.99,,,0.00,0.000000,,2013-02-16 11:42:00,
2013-02-16 03:52:00,47.0,46.0,-100.00,SW,214,0.0,0.0,96,-99.99,,,0.00,0.000000,,2013-02-16 11:52:00,
2013-02-16 04:01:00,47.0,46.0,-100.00,SW,214,0.0,0.0,96,-99.99,,,0.00,0.000000,,2013-02-16 12:01:00,
2013-02-16 04:12:00,47.0,46.0,-100.00,SW,214,0.0,0.0,96,-99.99,,,0.00,0.000000,,2013-02-16 12:12:00,
2013-02-16 04:42:00,47.0,46.0,-100.00,SE,141,1.0,3.0,95,-99.99,,,0.00,0.000000,,2013-02-16 12:42:00,
2013-02-16 04:52:00,47.0,46.0,-100.00,SE,141,1.0,3.0,95,-99.99,,,0.00,0.000000,,2013-02-16 12:52:00,
2013-02-16 05:01:00,47.0,46.0,-100.00,SE,141,1.0,3.0,95,-99.99,,,0.00,0.000000,,2013-02-16 13:01:00,
2013-02-16 05:11:00,47.0,46.0,-100.00,SE,141,1.0,3.0,95,-99.99,,,0.00,0.000000,,2013-02-16 13:11:00,
2013-02-16 06:41:00,46.0,45.0,-100.00,NW,312,1.0,6.0,94,-99.99,,,0.00,0.000000,,2013-02-16 14:41:00,
2013-02-16 06:52:00,46.0,45.0,-100.00,NW,312,1.0,6.0,94,-99.99,,,0.00,0.000000,,2013-02-16 14:52:00,
2013-02-16 07:01:00,46.0,45.0,-100.00,NW,312,1.0,6.0,94,-99.99,,,0.00,0.000000,,2013-02-16 15:01:00,
2013-02-16 07:11:00,46.0,45.0,-100.00,NW,312,1.0,6.0,94,-99.99,,,0.00,0.000000,,2013-02-16 15:11:00,
2013-02-16 07:41:00,46.0,45.0,-100.00,NNW,348,3.0,5.0,95,-99.99,,,0.00,0.810000,,2013-02-16 15:41:00,
2013-02-16 07:52:00,46.0,45.0,-100.00,NNW,348,3.0,5.0,95,-99.99,,,0.00,0.810000,,2013-02-16 15:52:00,
2013-02-16 08:01:00,46.0,45.0,-100.00,NNW,348,3.0,5.0,95,-99.99,,,0.00,0.810000,,2013-02-16 16:01:00,
2013-02-16 08:11:00,46.0,45.0,-100.00,NNW,348,3.0,5.0,95,-99.99,,,0.00,0.810000,,2013-02-16 16:11:00,
2013-02-16 08:41:00,46.0,45.0,-100.00,NNE,19,2.0,4.0,96,-99.99,,,0.00,32.889999,,2013-02-16 16:41:00,
2013-02-16 08:52:00,46.0,45.0,-100.00,NNE,19,2.0,4.0,96,-99.99,,,0.00,32.889999,,2013-02-16 16:52:00,
2013-02-16 09:01:00,46.0,45.0,-100.00,NNE,19,2.0,4.0,96,-99.99,,,0.00,32.889999,,2013-02-16 17:01:00,
2013-02-16 09:11:00,46.0,45.0,-100.00,NNE,19,2.0,4.0,96,-99.99,,,0.00,32.889999,,2013-02-16 17:11:00,
2013-02-16 09:41:00,46.0,45.0,-100.00,North,352,4.0,7.0,97,-99.99,,,-99.99,71.709999,,2013-02-16 17:41:00,
2013-02-16 09:52:00,46.0,45.0,-100.00,North,352,4.0,7.0,97,-99.99,,,-99.99,71.709999,,2013-02-16 17:52:00,
2013-02-16 10:01:00,46.0,45.0,-100.00,North,352,4.0,7.0,97,-99.99,,,-99.99,71.709999,,2013-02-16 18:01:00,
2013-02-16 10:11:00,46.0,45.0,-100.00,North,352,4.0,7.0,97,-99.99,,,-99.99,71.709999,,2013-02-16 18:11:00,
2013-02-16 10:42:00,47.0,46.0,-100.00,NNW,347,5.0,11.0,94,-99.99,,,0.00,166.190002,,2013-02-16 18:42:00,
2013-02-16 10:52:00,47.0,46.0,-100.00,NNW,347,5.0,11.0,94,-99.99,,,0.00,166.190002,,2013-02-16 18:52:00,
2013-02-16 11:02:00,47.0,46.0,-100.00,NNW,347,5.0,11.0,94,-99.99,,,0.00,166.190002,,2013-02-16 19:02:00,
2013-02-16 11:11:00,47.0,46.0,-100.00,NNW,347,5.0,11.0,94,-99.99,,,0.00,166.190002,,2013-02-16 19:11:00,
2013-02-16 11:42:00,50.0,45.0,-100.00,North,0,5.0,13.0,84,-99.99,,,0.00,546.820007,,2013-02-16 19:42:00,
2013-02-16 11:52:00,50.0,45.0,-100.00,North,0,5.0,13.0,84,-99.99,,,0.00,546.820007,,2013-02-16 19:52:00,
2013-02-16 12:01:00,50.0,45.0,-100.00,North,0,5.0,13.0,84,-99.99,,,0.00,546.820007,,2013-02-16 20:01:00,
2013-02-16 12:11:00,50.0,45.0,-100.00,North,0,5.0,13.0,84,-99.99,,,0.00,546.820007,,2013-02-16 20:11:00,
2013-02-16 12:42:00,51.0,43.0,-100.00,North,0,6.0,12.0,76,-99.99,,,0.00,397.700012,,2013-02-16 20:42:00,
2013-02-16 12:52:00,51.0,43.0,-100.00,North,0,6.0,12.0,76,-99.99,,,0.00,397.700012,,2013-02-16 20:52:00,
2013-02-16 13:02:00,51.0,43.0,-100.00,North,0,6.0,12.0,76,-99.99,,,0.00,397.700012,,2013-02-16 21:02:00,
2013-02-16 13:11:00,51.0,43.0,-100.00,North,0,6.0,12.0,76,-99.99,,,0.00,397.700012,,2013-02-16 21:11:00,
2013-02-16 13:41:00,50.0,42.0,-100.00,North,349,7.0,14.0,73,-99.99,,,0.00,303.570007,,2013-02-16 21:41:00,
2013-02-16 13:52:00,50.0,42.0,-100.00,North,349,7.0,14.0,73,-99.99,,,0.00,303.570007,,2013-02-16 21:52:00,
2013-02-16 14:01:00,50.0,42.0,-100.00,North,349,7.0,14.0,73,-99.99,,,0.00,303.570007,,2013-02-16 22:01:00,
2013-02-16 14:11:00,50.0,42.0,-100.00,North,349,7.0,14.0,73,-99.99,,,0.00,303.570007,,2013-02-16 22:11:00,
2013-02-16 14:42:00,51.0,43.0,-100.00,NNW,347,7.0,14.0,74,-99.99,,,0.00,431.519989,,2013-02-16 22:42:00,
2013-02-16 14:52:00,51.0,43.0,-100.00,NNW,347,7.0,14.0,74,-99.99,,,0.00,431.519989,,2013-02-16 22:52:00,
2013-02-16 15:02:00,51.0,43.0,-100.00,NNW,347,7.0,14.0,74,-99.99,,,0.00,431.519989,,2013-02-16 23:02:00,
2013-02-16 15:11:00,51.0,43.0,-100.00,NNW,347,7.0,14.0,74,-99.99,,,0.00,431.519989,,2013-02-16 23:11:00,
2013-02-16 15:42:00,51.0,44.0,-100.00,NNW,337,6.0,11.0,77,-99.99,,,0.00,360.750000,,2013-02-16 23:42:00,
2013-02-16 15:52:00,51.0,44.0,-100.00,NNW,337,6.0,11.0,77,-99.99,,,0.00,360.750000,,2013-02-16 23:52:00,
2013-02-16 16:02:00,51.0,44.0,-100.00,NNW,337,6.0,11.0,77,-99.99,,,0.00,360.750000,,2013-02-17 00:02:00,
2013-02-16 16:11:00,51.0,44.0,-100.00,NNW,337,6.0,11.0,77,-99.99,,,0.00,360.750000,,2013-02-17 00:11:00,
2013-02-16 16:41:00,49.0,44.0,-100.00,NNW,341,5.0,10.0,83,-99.99,,,0.00,99.370003,,2013-02-17 00:41:00,
2013-02-16 16:52:00,49.0,44.0,-100.00,NNW,341,5.0,10.0,83,-99.99,,,0.00,99.370003,,2013-02-17 00:52:00,
2013-02-16 17:01:00,49.0,44.0,-100.00,NNW,341,5.0,10.0,83,-99.99,,,0.00,99.370003,,2013-02-17 01:01:00,
2013-02-16 17:11:00,49.0,44.0,-100.00,NNW,341,5.0,10.0,83,-99.99,,,0.00,99.370003,,2013-02-17 01:11:00,
2013-02-16 18:41:00,47.0,44.0,-100.00,North,354,4.0,8.0,90,-99.99,,,0.00,0.460000,,2013-02-17 02:41:00,
2013-02-16 18:52:00,47.0,44.0,-100.00,North,354,4.0,8.0,90,-99.99,,,0.00,0.460000,,2013-02-17 02:52:00,
2013-02-16 19:01:00,47.0,44.0,-100.00,North,354,4.0,8.0,90,-99.99,,,0.00,0.460000,,2013-02-17 03:01:00,
2013-02-16 19:11:00,47.0,44.0,-100.00,North,354,4.0,8.0,90,-99.99,,,0.00,0.460000,,2013-02-17 03:11:00,
2013-02-16 19:42:00,46.0,43.0,-100.00,NNE,18,2.0,3.0,91,-99.99,,,0.00,0.000000,,2013-02-17 03:42:00,
2013-02-16 19:52:00,46.0,43.0,-100.00,NNE,18,2.0,3.0,91,-99.99,,,0.00,0.000000,,2013-02-17 03:52:00,
2013-02-16 20:01:00,46.0,43.0,-100.00,NNE,18,2.0,3.0,91,-99.99,,,0.00,0.000000,,2013-02-17 04:01:00,
2013-02-16 20:11:00,46.0,43.0,-100.00,NNE,18,2.0,3.0,91,-99.99,,,0.00,0.000000,,2013-02-17 04:11:00,
2013-02-16 20:41:00,45.0,42.0,-100.00,NNE,31,0.0,2.0,91,-99.99,,,0.00,0.000000,,2013-02-17 04:41:00,
2013-02-16 20:52:00,45.0,42.0,-100.00,NNE,31,0.0,2.0,91,-99.99,,,0.00,0.000000,,2013-02-17 04:52:00,
2013-02-16 21:01:00,45.0,42.0,-100.00,NNE,31,0.0,2.0,91,-99.99,,,0.00,0.000000,,2013-02-17 05:01:00,
2013-02-16 21:11:00,45.0,42.0,-100.00,NNE,31,0.0,2.0,91,-99.99,,,0.00,0.000000,,2013-02-17 05:11:00,
2013-02-16 21:42:00,43.0,41.0,-100.00,ENE,73,1.0,2.0,92,-99.99,,,0.00,0.000000,,2013-02-17 05:42:00,
2013-02-16 21:52:00,43.0,41.0,-100.00,ENE,73,1.0,2.0,92,-99.99,,,0.00,0.000000,,2013-02-17 05:52:00,
2013-02-16 22:02:00,43.0,41.0,-100.00,ENE,73,1.0,2.0,92,-99.99,,,0.00,0.000000,,2013-02-17 06:02:00,
2013-02-16 22:11:00,43.0,41.0,-100.00,ENE,73,1.0,2.0,92,-99.99,,,0.00,0.000000,,2013-02-17 06:11:00,
2013-02-16 22:41:00,46.0,43.0,-100.00,NNE,13,4.0,9.0,91,-99.99,,,-99.99,0.000000,,2013-02-17 06:41:00,
2013-02-16 22:52:00,46.0,43.0,-100.00,NNE,13,4.0,9.0,91,-99.99,,,-99.99,0.000000,,2013-02-17 06:52:00,
2013-02-16 23:01:00,46.0,43.0,-100.00,NNE,13,4.0,9.0,91,-99.99,,,-99.99,0.000000,,2013-02-17 07:01:00,
2013-02-16 23:11:00,46.0,43.0,-100.00,NNE,13,4.0,9.0,91,-99.99,,,-99.99,0.000000,,2013-02-17 07:11:00,
2013-02-16 23:41:00,45.0,42.0,-100.00,North,10,4.0,10.0,89,-99.99,,,0.00,0.000000,,2013-02-17 07:41:00,
2013-02-16 23:52:00,45.0,42.0,-100.00,North,10,4.0,10.0,89,-99.99,,,0.00,0.000000,,2013-02-17 07:52:00,